Location: Kalispell
(48.1967°N, 114.3128°W)
Time: 01:59:57
(UTC-07:00)

Amateur Radio Satellites - All Passes

Search period start: 06 March 2015 01:29
Search period end: 07 March 2015 01:29
Location: Kalispell, 48.1967°N, 114.3128°W

Satellite Date Start Highest point End Downlink Frequencies (MHz)
Time Altitude Azimuth
Oscar 19 06 Mar 01:32:16 01:36:47 31° 94° (E) 01:41:22 437.125/150
DUCHIFAT 1 06 Mar 01:35:38 01:37:11 12° 302° (WNW) 01:38:33 145.980
STARS 06 Mar 01:37:26 01:40:51 23° 63° (ENE) 01:44:20 437.465
KKS-1 06 Mar 01:38:56 01:42:55 33° 67° (ENE) 01:46:58 437.445
BEESAT 2 06 Mar 01:39:14 01:43:24 65° 236° (SW) 01:47:28 435.950
ITAMSAT 1 06 Mar 01:40:17 01:42:39 13° 85° (E) 01:45:16 435.822/435.867
SO-50 06 Mar 01:52:33 01:57:12 85° 127° (SE) 02:02:02 436.795
AIST 2 06 Mar 01:57:07 02:01:26 79° 51° (NE) 02:05:40 435.215
PCSat 06 Mar 02:03:51 02:05:43 12° 13° (NNE) 02:07:41 145.827
SWISSCUBE 06 Mar 02:20:16 02:24:09 24° 268° (W) 02:27:59 437.505
BEESAT 06 Mar 02:28:25 02:32:09 22° 269° (W) 02:35:47 436.000
YUBILEINY 06 Mar 02:32:37 02:41:04 47° 69° (ENE) 02:49:32 435.215
RS-15 06 Mar 02:41:57 02:52:04 39° 341° (NNW) 03:02:25 29.354- 29.394
BEESAT 3 06 Mar 02:49:05 02:51:15 14° 249° (WSW) 02:53:14 437.485
AUBIESAT-1 06 Mar 02:53:16 02:55:27 16° 56° (NE) 02:57:49 437.475
M-CUBED/EXP-1 PRIME 06 Mar 02:54:17 02:56:42 18° 57° (ENE) 02:59:16 437.505
ITUPSAT 1 06 Mar 03:00:27 03:02:24 12° 275° (W) 03:04:05 437.325
Oscar 19 06 Mar 03:11:29 03:16:16 40° 293° (WNW) 03:21:01 437.125/150
Gurwin Techsat 1B 06 Mar 03:11:48 03:17:07 63° 101° (E) 03:22:24 435.225
STARS 06 Mar 03:12:49 03:17:05 46° 261° (W) 03:21:22 437.465
KKS-1 06 Mar 03:15:38 03:19:36 30° 265° (W) 03:23:33 437.445
ITAMSAT 1 06 Mar 03:17:46 03:23:02 88° 105° (ESE) 03:28:16 435.822/435.867
MOZHAYETS 4 06 Mar 03:17:49 03:21:08 21° 62° (ENE) 03:24:35
HORYU 2 06 Mar 03:30:58 03:34:43 26° 94° (E) 03:38:31 437.375
SO-50 06 Mar 03:34:33 03:38:23 23° 329° (NNW) 03:42:15 436.795
AIST 2 06 Mar 03:37:10 03:39:30 14° 249° (WSW) 03:41:41 435.215
PCSat 06 Mar 03:46:26 03:51:04 28° 38° (NE) 03:55:45 145.827
JAS-2 06 Mar 03:48:18 03:54:08 25° 87° (E) 04:00:23 435.910
AO-7 06 Mar 04:06:12 04:13:40 37° 95° (E) 04:21:13 29.400- 29.500
AUBIESAT-1 06 Mar 04:26:49 04:30:03 43° 255° (WSW) 04:33:29 437.475
M-CUBED/EXP-1 PRIME 06 Mar 04:28:17 04:31:26 37° 257° (WSW) 04:34:47 437.505
YUBILEINY 06 Mar 04:29:39 04:38:00 47° 272° (W) 04:46:13 435.215
PRISM 06 Mar 04:37:07 04:38:20 11° 57° (ENE) 04:39:43 437.425
Gurwin Techsat 1B 06 Mar 04:52:35 04:56:42 23° 300° (WNW) 05:00:43 435.225
MOZHAYETS 4 06 Mar 04:53:34 04:58:03 54° 260° (W) 05:02:35
RS-15 06 Mar 04:58:02 05:08:06 37° 14° (NNE) 05:18:35 29.354- 29.394
ITAMSAT 1 06 Mar 04:58:37 05:01:54 17° 304° (WNW) 05:05:01 435.822/435.867
HORYU 2 06 Mar 05:07:22 05:11:30 37° 292° (WNW) 05:15:35 437.375
SO-50 06 Mar 05:18:50 05:20:41 12° 353° (N) 05:22:31 436.795
CUBESAT XI-V 06 Mar 05:26:37 05:30:47 33° 67° (ENE) 05:35:01 437.345
STRAND 1 06 Mar 05:27:30 05:31:38 26° 62° (ENE) 05:35:53 437.568
PCSat 06 Mar 05:29:34 05:34:59 68° 240° (WSW) 05:40:22 145.827
JAS-2 06 Mar 05:32:27 05:39:57 83° 286° (WNW) 05:47:51 435.910
Cubesat XI-IV 06 Mar 05:36:28 05:38:57 14° 85° (E) 05:41:41 437.490
CUTE-I 06 Mar 05:43:50 05:46:54 16° 86° (E) 05:50:10 437.470
AO-7 06 Mar 05:58:49 06:06:57 61° 297° (WNW) 06:15:01 29.400- 29.500
PRISM 06 Mar 06:09:01 06:13:11 84° 73° (ENE) 06:17:25 437.425
AIST 1 06 Mar 06:17:45 06:20:48 19° 87° (E) 06:24:00
GONETS M04 06 Mar 06:46:33 06:51:36 17° 49° (NE) 06:57:02
SO-50 06 Mar 07:00:30 07:03:15 15° 18° (NNE) 07:06:05 436.795
CUBESAT XI-V 06 Mar 07:03:56 07:08:13 33° 265° (W) 07:12:30 437.345
STRAND 1 06 Mar 07:05:33 07:10:34 52° 260° (W) 07:15:38 437.568
RS-15 06 Mar 07:11:33 07:22:52 70° 45° (NE) 07:34:43 29.354- 29.394
Cubesat XI-IV 06 Mar 07:14:32 07:19:58 87° 103° (ESE) 07:25:21 437.490
PCSat 06 Mar 07:16:01 07:17:33 11° 257° (WSW) 07:18:44 145.827
JAS-2 06 Mar 07:18:36 07:24:11 23° 305° (NW) 07:29:48 435.910
CUTE-I 06 Mar 07:22:21 07:27:46 83° 286° (WNW) 07:33:07 437.470
ISS 06 Mar 07:40:20 07:42:13 15° 138° (SE) 07:44:10 145.825
PRISM 06 Mar 07:48:20 07:49:23 11° 274° (W) 07:50:13 437.425
AO-7 06 Mar 07:52:54 07:58:16 19° 319° (NW) 08:03:24 29.400- 29.500
AIST 1 06 Mar 07:53:56 07:58:11 46° 285° (WNW) 08:02:27
BRITE-PL 06 Mar 08:07:00 08:09:43 16° 87° (E) 08:12:29 437.365/2234.400
O/OREOS (USA 219) 06 Mar 08:19:45 08:23:07 21° 103° (ESE) 08:26:37 437.305
COMPASS 1 06 Mar 08:27:57 08:29:01 11° 85° (E) 08:30:20 437.405
SO-50 06 Mar 08:40:29 08:45:08 40° 41° (NE) 08:49:48 436.795
GONETS M04 06 Mar 08:42:00 08:50:42 64° 75° (ENE) 08:59:26
HO-68 06 Mar 08:48:58 08:55:27 36° 95° (E) 09:02:00 435.675
Cubesat XI-IV 06 Mar 08:55:55 08:59:27 18° 304° (WNW) 09:02:48 437.490
SEEDS 06 Mar 08:59:20 09:02:58 28° 94° (E) 09:06:40 437.485
CUTE-I 06 Mar 09:03:57 09:07:07 16° 305° (NW) 09:10:06 437.470
QB50P1 06 Mar 09:05:05 09:05:54 11° 57° (ENE) 09:06:55 145.935-145.965
CANX-2 06 Mar 09:08:48 09:12:53 44° 98° (E) 09:16:59 2200.000
QB50P2 06 Mar 09:09:35 09:11:08 12° 58° (ENE) 09:12:51 145.880/145.840
ISS 06 Mar 09:15:00 09:18:14 75° 155° (SSE) 09:21:28 145.825
CUBEBUG 2 06 Mar 09:17:37 09:18:57 12° 86° (E) 09:20:31 437.445
DUCHIFAT 1 06 Mar 09:20:12 09:22:29 15° 60° (ENE) 09:24:54 145.980
CINEMA 3 06 Mar 09:22:31 09:25:49 22° 92° (E) 09:29:09 145.822/145.860
RS-15 06 Mar 09:24:22 09:34:56 44° 248° (WSW) 09:45:43 29.354- 29.394
CUTE 1.7 + AOD 2 06 Mar 09:26:42 09:30:57 62° 101° (E) 09:35:11 437.475
GOMX 1 06 Mar 09:28:22 09:32:44 68° 101° (E) 09:36:53 467.674
UNISAT 6 06 Mar 09:31:05 09:34:52 30° 67° (ENE) 09:38:38 437.425
FUNcube-1 06 Mar 09:36:29 09:38:12 12° 87° (E) 09:40:07 145.935
ZACube-1 06 Mar 09:39:01 09:41:03 14° 88° (E) 09:43:15 437.345
UKube-1 06 Mar 09:39:15 09:40:51 12° 86° (E) 09:42:39 .
POPSAT HIP 1 06 Mar 09:42:26 09:45:46 23° 64° (ENE) 09:49:11 437.405
POLYITAN 1 06 Mar 09:43:55 09:47:21 24° 65° (ENE) 09:50:51 437.675
DOVE 4 06 Mar 09:43:57 09:48:13 68° 102° (ESE) 09:52:20 437.250
BRITE-PL 06 Mar 09:44:22 09:48:50 57° 288° (WNW) 09:53:00 437.365/2234.400
TIGRISAT 06 Mar 09:53:42 09:57:51 47° 71° (ENE) 10:02:01 435.000
AAUSAT CUBESAT 2 06 Mar 09:55:18 09:59:31 77° 102° (ESE) 10:03:44 437.432
O/OREOS (USA 219) 06 Mar 09:57:45 10:02:14 51° 301° (WNW) 10:06:45 437.305
COMPASS 1 06 Mar 10:01:10 10:05:24 82° 285° (WNW) 10:09:38 437.405
NANOSAT C BR1 06 Mar 10:03:18 10:07:12 35° 68° (ENE) 10:11:07 145.865
UWE-3 06 Mar 10:06:11 10:09:53 30° 95° (E) 10:13:37 435.000/436.395/437.385
DANDE 06 Mar 10:06:15 10:07:18 12° 65° (ENE) 10:08:24 436.750
ANTELSAT 06 Mar 10:09:26 10:13:45 70° 74° (ENE) 10:18:02 437.575/2403.000
CUSAT 1 06 Mar 10:11:08 10:13:03 18° 70° (ENE) 10:15:03 437.405
Oscar 11 06 Mar 10:17:37 10:21:57 64° 101° (ESE) 10:26:15 145.826/435.025
SO-50 06 Mar 10:21:06 10:25:45 41° 240° (WSW) 10:30:20 436.795
BUGSAT 1 06 Mar 10:25:52 10:29:56 45° 70° (ENE) 10:34:03 437.445
SEEDS 06 Mar 10:35:03 10:38:51 32° 292° (WNW) 10:42:37 437.485
HO-68 06 Mar 10:36:31 10:43:31 54° 295° (WNW) 10:50:26 435.675
QB50P1 06 Mar 10:36:50 10:41:06 77° 74° (ENE) 10:45:24 145.935-145.965
DELFI C3 06 Mar 10:38:40 10:42:47 87° 98° (E) 10:46:54 145.870
GONETS M04 06 Mar 10:39:31 10:47:06 33° 276° (W) 10:54:31
QB50P2 06 Mar 10:42:09 10:46:27 88° 81° (E) 10:50:45 145.880/145.840
HUMSAT D 06 Mar 10:44:39 10:48:25 34° 96° (E) 10:52:12 437.325/437.525
CANX-2 06 Mar 10:45:18 10:48:37 22° 295° (WNW) 10:51:50 2200.000
DX 1 06 Mar 10:49:01 10:53:23 62° 102° (ESE) 10:57:41 434.975-435.025
ISS 06 Mar 10:51:42 10:54:50 44° 355° (N) 10:57:57 145.825
CUBEBUG 2 06 Mar 10:52:08 10:56:18 75° 286° (WNW) 11:00:28 437.445
DUCHIFAT 1 06 Mar 10:53:34 10:57:50 74° 256° (WSW) 11:02:08 145.980
CINEMA 3 06 Mar 10:59:21 11:03:13 37° 291° (WNW) 11:07:02 145.822/145.860
CUBEBUG 1 06 Mar 11:01:17 11:04:13 18° 89° (E) 11:07:17 437.445
CUTE 1.7 + AOD 2 06 Mar 11:03:43 11:06:29 17° 298° (WNW) 11:09:07 437.475
UNISAT 6 06 Mar 11:07:45 11:11:39 31° 264° (W) 11:15:29 437.425
GOMX 1 06 Mar 11:07:49 11:10:23 15° 300° (WNW) 11:12:44 467.674
FUNcube-1 06 Mar 11:10:59 11:15:08 70° 286° (WNW) 11:19:17 145.935
AISAT 06 Mar 11:11:16 11:15:34 46° 99° (E) 11:19:50 437.250
UKube-1 06 Mar 11:13:17 11:17:40 80° 287° (WNW) 11:22:00 .
ZACube-1 06 Mar 11:13:48 11:17:57 65° 286° (WNW) 11:22:05 437.345
POPSAT HIP 1 06 Mar 11:17:24 11:21:28 41° 262° (W) 11:25:33 437.405
Oscar 19 06 Mar 11:17:31 11:19:08 12° 53° (NE) 11:20:58 437.125/150
VELOX 1 06 Mar 11:18:44 11:23:06 54° 100° (E) 11:27:28 145.980
POLYITAN 1 06 Mar 11:19:05 11:23:08 39° 263° (W) 11:27:10 437.675
DOVE 4 06 Mar 11:23:07 11:25:31 15° 300° (WNW) 11:27:46 437.250
TIGRISAT 06 Mar 11:31:43 11:34:55 19° 269° (W) 11:38:00 435.000
AAUSAT CUBESAT 2 06 Mar 11:32:30 11:34:40 14° 300° (WNW) 11:36:42 437.432
50 SAT 06 Mar 11:33:14 11:37:13 80° 102° (ESE) 11:41:12 437.505
COMPASS 1 06 Mar 11:39:17 11:40:28 11° 302° (WNW) 11:41:29 437.405
NANOSAT C BR1 06 Mar 11:39:32 11:43:09 26° 266° (W) 11:46:44 145.865
O/OREOS (USA 219) 06 Mar 11:41:51 11:42:52 11° 324° (NW) 11:43:44 437.305
UWE-3 06 Mar 11:42:49 11:46:25 28° 293° (WNW) 11:49:59 435.000/436.395/437.385
DANDE 06 Mar 11:48:40 11:50:42 19° 266° (W) 11:52:41 436.750
ANTELSAT 06 Mar 11:48:54 11:51:07 13° 273° (W) 11:53:08 437.575/2403.000
ESTCUBE 1 06 Mar 11:49:53 11:54:24 57° 100° (E) 11:58:54 437.505/2401.250
CUSAT 1 06 Mar 11:54:33 11:55:46 12° 267° (W) 11:56:54 437.405
Oscar 11 06 Mar 11:54:54 11:57:42 17° 299° (WNW) 12:00:23 145.826/435.025
BUGSAT 1 06 Mar 12:02:26 12:05:41 20° 269° (W) 12:08:51 437.445
QB50P1 06 Mar 12:15:47 12:17:37 12° 274° (W) 12:19:15 145.935-145.965
DELFI C3 06 Mar 12:15:51 12:17:26 12° 301° (WNW) 12:18:51 145.870
HUMSAT D 06 Mar 12:20:40 12:24:06 25° 294° (WNW) 12:27:30 437.325/437.525
QB50P2 06 Mar 12:22:08 12:23:05 10° 275° (W) 12:23:47 145.880/145.840
HO-68 06 Mar 12:26:06 12:29:50 15° 316° (NW) 12:33:18 435.675
DX 1 06 Mar 12:26:17 12:29:13 17° 299° (WNW) 12:32:02 434.975-435.025
ISS 06 Mar 12:28:23 12:31:35 57° 14° (NNE) 12:34:47 145.825
CUBEBUG 1 06 Mar 12:36:40 12:41:00 54° 289° (WNW) 12:45:17 437.445
TISAT 1 06 Mar 12:41:08 12:45:10 42° 98° (E) 12:49:11 437.305
AISAT 06 Mar 12:48:26 12:51:56 22° 297° (WNW) 12:55:19 437.250
UKube-1 06 Mar 12:51:42 12:53:09 11° 304° (WNW) 12:54:25 .
SPROUT 06 Mar 12:52:09 12:56:26 63° 101° (E) 13:00:40 437.525
Oscar 19 06 Mar 12:52:33 12:57:37 65° 72° (ENE) 13:02:43 437.125/150
VELOX 1 06 Mar 12:56:05 12:59:22 20° 298° (WNW) 13:02:32 145.980
Gurwin Techsat 1B 06 Mar 12:58:19 13:02:24 24° 60° (ENE) 13:06:36 435.225
ITAMSAT 1 06 Mar 13:00:56 13:05:26 31° 64° (ENE) 13:10:01 435.822/435.867
50 SAT 06 Mar 13:10:06 13:11:41 12° 300° (WNW) 13:13:08 437.505
ITUPSAT 1 06 Mar 13:16:50 13:20:09 19° 89° (E) 13:23:36 437.325
AO-7 06 Mar 13:20:02 13:25:33 21° 43° (NE) 13:31:18 29.400- 29.500
ESTCUBE 1 06 Mar 13:27:36 13:30:56 20° 298° (WNW) 13:34:08 437.505/2401.250
ISS 06 Mar 14:04:55 14:07:58 39° 213° (SSW) 14:11:00 145.825
JAS-2 06 Mar 14:07:26 14:10:32 15° 48° (NE) 14:14:02 435.910
SWISSCUBE 06 Mar 14:15:42 14:20:32 69° 103° (ESE) 14:25:20 437.505
TISAT 1 06 Mar 14:17:27 14:20:46 22° 296° (WNW) 14:23:59 437.305
BEESAT 06 Mar 14:23:31 14:28:21 75° 102° (ESE) 14:33:09 436.000
SPROUT 06 Mar 14:29:20 14:32:07 17° 299° (WNW) 14:34:46 437.525
HORYU 2 06 Mar 14:32:47 14:36:52 38° 68° (ENE) 14:41:00 437.375
Oscar 19 06 Mar 14:33:48 14:37:31 19° 271° (W) 14:41:04 437.125/150
Gurwin Techsat 1B 06 Mar 14:36:46 14:42:01 61° 259° (WSW) 14:47:19 435.225
ITAMSAT 1 06 Mar 14:39:50 14:44:49 43° 262° (W) 14:49:49 435.822/435.867
ITUPSAT 1 06 Mar 14:53:44 14:58:31 61° 289° (WNW) 15:03:16 437.325
STARS 06 Mar 14:59:22 15:02:58 25° 93° (E) 15:06:37 437.465
KKS-1 06 Mar 15:02:38 15:06:49 39° 97° (E) 15:11:00 437.445
AO-7 06 Mar 15:08:48 15:17:01 67° 65° (ENE) 15:25:16 29.400- 29.500
YUBILEINY 06 Mar 15:38:13 15:46:19 46° 88° (E) 15:54:37 435.215
JAS-2 06 Mar 15:48:38 15:54:20 65° 70° (ENE) 16:00:50 435.910
SWISSCUBE 06 Mar 15:54:36 15:57:57 19° 300° (WNW) 16:01:09 437.505
BEESAT 06 Mar 16:02:33 16:05:41 17° 301° (WNW) 16:08:42 436.000
M-CUBED/EXP-1 PRIME 06 Mar 16:07:44 16:08:41 11° 92° (E) 16:09:55 437.505
HORYU 2 06 Mar 16:09:58 16:13:41 25° 267° (W) 16:17:20 437.375
ITUPSAT 1 06 Mar 16:34:52 16:35:33 10° 307° (NW) 16:35:59 437.325
STARS 06 Mar 16:35:29 16:39:36 38° 291° (WNW) 16:43:38 437.465
KKS-1 06 Mar 16:39:37 16:43:19 26° 296° (WNW) 16:46:56 437.445
BEESAT 3 06 Mar 16:44:08 16:48:03 45° 121° (ESE) 16:52:03 437.485
MOZHAYETS 4 06 Mar 16:45:17 16:49:16 28° 93° (E) 16:53:17
O/OREOS (USA 219) 06 Mar 16:46:46 16:49:07 14° 41° (NE) 16:51:36 437.305
Cubesat XI-IV 06 Mar 17:01:10 17:05:53 33° 64° (ENE) 17:10:42 437.490
AO-7 06 Mar 17:03:04 17:10:28 33° 266° (W) 17:17:43 29.400- 29.500
CUTE-I 06 Mar 17:08:38 17:13:30 37° 65° (ENE) 17:18:27 437.470
BEESAT 2 06 Mar 17:14:25 17:18:33 75° 126° (SE) 17:22:44 435.950
VERMONT LUNAR 06 Mar 17:20:25 17:22:59 19° 168° (SSE) 17:25:33 437.305
YUBILEINY 06 Mar 17:34:50 17:43:14 47° 290° (WNW) 17:51:40 435.215
JAS-2 06 Mar 17:35:35 17:40:13 23° 274° (W) 17:45:06 435.910
AIST 2 06 Mar 17:36:37 17:40:45 51° 122° (ESE) 17:44:58 435.215
AUBIESAT-1 06 Mar 17:38:01 17:42:21 73° 108° (ESE) 17:46:58 437.475
M-CUBED/EXP-1 PRIME 06 Mar 17:39:53 17:44:13 83° 109° (ESE) 17:48:51 437.505
HO-68 06 Mar 17:40:29 17:41:58 11° 39° (NE) 17:43:45 435.675
PHONESAT 2.4 06 Mar 17:56:07 17:58:47 19° 167° (SSE) 18:01:29 2401.200-2431.200
AIST 1 06 Mar 17:57:13 18:01:37 62° 77° (ENE) 18:05:59
MOZHAYETS 4 06 Mar 18:22:18 18:26:36 38° 292° (WNW) 18:30:53
BEESAT 3 06 Mar 18:22:40 18:26:18 29° 321° (NW) 18:29:57 437.485
O/OREOS (USA 219) 06 Mar 18:24:49 18:29:27 75° 63° (ENE) 18:34:01 437.305
Cubesat XI-IV 06 Mar 18:40:49 18:45:55 42° 263° (W) 18:51:01 437.490
CUTE-I 06 Mar 18:48:38 18:53:36 37° 264° (W) 18:58:34 437.470
BEESAT 2 06 Mar 18:53:58 18:57:12 21° 327° (NNW) 19:00:25 435.950
CUBESAT XI-V 06 Mar 18:56:32 19:01:07 48° 98° (E) 19:05:39 437.345
VERMONT LUNAR 06 Mar 18:57:28 19:00:16 22° 185° (S) 19:03:03 437.305
GOMX 1 06 Mar 19:03:28 19:06:47 18° 61° (ENE) 19:10:07 467.674
STRAND 1 06 Mar 19:12:21 19:17:12 40° 97° (E) 19:22:03 437.568
AUBIESAT-1 06 Mar 19:13:58 19:16:50 17° 304° (WNW) 19:19:42 437.475
AIST 2 06 Mar 19:15:52 19:19:37 28° 322° (NW) 19:23:20 435.215
M-CUBED/EXP-1 PRIME 06 Mar 19:16:09 19:18:43 15° 305° (NW) 19:21:15 437.505
DOVE 4 06 Mar 19:17:19 19:20:13 16° 61° (ENE) 19:23:11 437.250
AAUSAT CUBESAT 2 06 Mar 19:17:59 19:18:50 11° 58° (ENE) 19:19:52 437.432
BRITE-PL 06 Mar 19:19:54 19:24:48 34° 67° (ENE) 19:29:29 437.365/2234.400
HO-68 06 Mar 19:21:25 19:27:55 40° 61° (ENE) 19:34:31 435.675
COMPASS 1 06 Mar 19:22:56 19:24:56 14° 60° (ENE) 19:27:06 437.405
PRISM 06 Mar 19:23:32 19:27:48 85° 101° (E) 19:32:03 437.425
PHONESAT 2.4 06 Mar 19:33:38 19:36:38 24° 184° (S) 19:39:37 2401.200-2431.200
AIST 1 06 Mar 19:36:17 19:38:49 15° 275° (W) 19:41:10
YUBILEINY 06 Mar 19:39:41 19:43:06 12° 318° (NW) 19:46:03 435.215
Oscar 11 06 Mar 19:43:38 19:44:34 11° 57° (ENE) 19:45:42 145.826/435.025
SEEDS 06 Mar 19:55:09 19:58:50 31° 68° (ENE) 20:02:34 437.485
GONETS M04 06 Mar 19:56:57 20:00:32 14° 72° (ENE) 20:04:41
DELFI C3 06 Mar 19:58:29 19:59:25 11° 59° (ENE) 20:00:32 145.870
CANX-2 06 Mar 20:05:17 20:09:21 50° 72° (ENE) 20:13:28 2200.000
BEESAT 3 06 Mar 20:05:22 20:05:45 10° 344° (NNW) 20:06:03 437.485
O/OREOS (USA 219) 06 Mar 20:05:48 20:08:19 14° 260° (W) 20:10:38 437.305
PCSat 06 Mar 20:14:34 20:19:48 53° 118° (ESE) 20:25:07 145.827
DX 1 06 Mar 20:15:01 20:16:44 12° 57° (ENE) 20:18:37 434.975-435.025
CUBEBUG 2 06 Mar 20:19:01 20:21:53 18° 63° (ENE) 20:24:50 437.445
CUTE 1.7 + AOD 2 06 Mar 20:23:03 20:27:15 70° 74° (ENE) 20:31:28 437.475
CINEMA 3 06 Mar 20:27:30 20:31:41 35° 69° (ENE) 20:35:45 145.822/145.860
CUBESAT XI-V 06 Mar 20:34:31 20:38:19 24° 296° (WNW) 20:42:01 437.345
FUNcube-1 06 Mar 20:35:46 20:38:33 18° 63° (ENE) 20:41:25 145.935
VERMONT LUNAR 06 Mar 20:35:48 20:37:27 13° 201° (SSW) 20:39:05 437.305
UKube-1 06 Mar 20:37:16 20:40:12 18° 61° (ENE) 20:43:15 .
ZACube-1 06 Mar 20:38:33 20:41:30 19° 63° (ENE) 20:44:32 437.345
GOMX 1 06 Mar 20:39:13 20:44:29 77° 257° (WSW) 20:49:27 467.674
AISAT 06 Mar 20:40:57 20:41:09 10° 55° (NE) 20:41:35 437.250
VELOX 1 06 Mar 20:47:04 20:48:23 11° 56° (NE) 20:49:53 145.980
AAUSAT CUBESAT 2 06 Mar 20:49:42 20:53:51 83° 76° (ENE) 20:58:02 437.432
STRAND 1 06 Mar 20:51:47 20:56:20 32° 296° (WNW) 21:00:49 437.568
DOVE 4 06 Mar 20:52:31 20:57:33 79° 257° (WSW) 21:02:18 437.250
COMPASS 1 06 Mar 20:56:00 21:00:09 75° 257° (WSW) 21:04:20 437.405
BRITE-PL 06 Mar 20:58:03 21:03:16 40° 264° (W) 21:08:11 437.365/2234.400
AIST 2 06 Mar 20:58:50 20:59:38 10° 345° (NNW) 21:00:23 435.215
PRISM 06 Mar 21:00:44 21:02:45 13° 302° (WNW) 21:04:36 437.425
UWE-3 06 Mar 21:06:51 21:10:55 40° 70° (ENE) 21:14:56 435.000/436.395/437.385
HO-68 06 Mar 21:08:39 21:15:34 50° 261° (W) 21:22:30 435.675
PHONESAT 2.4 06 Mar 21:12:18 21:14:24 15° 200° (SSW) 21:16:27 2401.200-2431.200
Oscar 11 06 Mar 21:15:47 21:20:05 78° 75° (ENE) 21:24:24 145.826/435.025
ESTCUBE 1 06 Mar 21:19:35 21:21:18 12° 57° (ENE) 21:23:12 437.505/2401.250
DELFI C3 06 Mar 21:29:58 21:34:01 87° 77° (ENE) 21:38:06 145.870
SEEDS 06 Mar 21:31:02 21:34:41 28° 266° (W) 21:38:18 437.485
HUMSAT D 06 Mar 21:40:09 21:44:01 39° 70° (ENE) 21:47:54 437.325/437.525
CANX-2 06 Mar 21:42:41 21:45:38 18° 270° (W) 21:48:29 2200.000
RS-15 06 Mar 21:42:54 21:50:48 25° 103° (ESE) 21:59:13 29.354- 29.394
GONETS M04 06 Mar 21:47:15 21:55:45 64° 93° (E) 22:04:20
DX 1 06 Mar 21:47:57 21:52:21 86° 76° (ENE) 21:56:47 434.975-435.025
CUBEBUG 2 06 Mar 21:53:54 21:58:17 58° 260° (W) 22:02:31 437.445
PCSat 06 Mar 21:58:36 22:03:31 33° 318° (NW) 22:08:25 145.827
ANTELSAT 06 Mar 22:00:10 22:01:11 11° 86° (E) 22:02:26 437.575/2403.000
CUBEBUG 1 06 Mar 22:00:52 22:04:27 25° 65° (ENE) 22:08:06 437.445
CUTE 1.7 + AOD 2 06 Mar 22:01:41 22:03:45 13° 273° (W) 22:05:38 437.475
CINEMA 3 06 Mar 22:04:54 22:08:58 29° 266° (W) 22:12:51 145.822/145.860
FUNcube-1 06 Mar 22:10:19 22:14:34 57° 260° (W) 22:18:44 145.935
UKube-1 06 Mar 22:11:42 22:16:00 58° 259° (W) 22:20:20 .
AISAT 06 Mar 22:12:32 22:17:00 67° 72° (ENE) 22:21:30 437.250
ZACube-1 06 Mar 22:13:22 22:17:35 52° 260° (W) 22:21:45 437.345
SPROUT 06 Mar 22:17:37 22:18:34 11° 57° (ENE) 22:19:43 437.525
VELOX 1 06 Mar 22:19:46 22:24:15 76° 74° (ENE) 22:28:46 145.980
GOMX 1 06 Mar 22:21:52 22:23:27 11° 276° (W) 22:24:42 467.674
50 SAT 06 Mar 22:23:09 22:27:07 79° 76° (ENE) 22:31:06 437.505
QB50P2 06 Mar 22:26:22 22:27:35 11° 86° (E) 22:29:03 145.880/145.840
AAUSAT CUBESAT 2 06 Mar 22:29:09 22:30:11 11° 275° (W) 22:30:59 437.432
DOVE 4 06 Mar 22:34:52 22:36:06 11° 276° (W) 22:37:02 437.250
DUCHIFAT 1 06 Mar 22:36:28 22:38:38 14° 88° (E) 22:40:57 145.980
UWE-3 06 Mar 22:44:10 22:47:39 23° 268° (W) 22:51:01 435.000/436.395/437.385
ESTCUBE 1 06 Mar 22:52:57 22:57:30 81° 75° (ENE) 23:02:05 437.505/2401.250
Oscar 11 06 Mar 22:55:06 22:56:54 12° 274° (W) 22:58:31 145.826/435.025
UNISAT 6 06 Mar 22:55:28 22:59:31 38° 97° (E) 23:03:38 437.425
POPSAT HIP 1 06 Mar 22:59:25 23:02:51 24° 93° (E) 23:06:19 437.405
POLYITAN 1 06 Mar 23:01:16 23:04:47 25° 94° (E) 23:08:21 437.675
HUMSAT D 06 Mar 23:16:41 23:19:59 22° 268° (W) 23:23:12 437.325/437.525
TIGRISAT 06 Mar 23:18:07 23:22:23 64° 101° (E) 23:26:42 435.000
NANOSAT C BR1 06 Mar 23:20:21 23:24:19 38° 97° (E) 23:28:16 145.865
DANDE 06 Mar 23:20:34 23:25:24 28° 96° (E) 23:29:20 436.750
BEESAT 3 06 Mar 23:22:32 23:25:29 19° 31° (NNE) 23:28:28 437.485
CUSAT 1 06 Mar 23:22:41 23:27:25 33° 97° (E) 23:31:10 437.405
DX 1 06 Mar 23:27:47 23:29:20 11° 274° (W) 23:30:38 434.975-435.025
ANTELSAT 06 Mar 23:34:21 23:38:41 86° 285° (WNW) 23:43:04 437.575/2403.000
CUBEBUG 1 06 Mar 23:36:25 23:40:39 42° 262° (W) 23:44:54 437.445
TISAT 1 06 Mar 23:36:47 23:40:56 52° 71° (ENE) 23:45:07 437.305
BUGSAT 1 06 Mar 23:40:06 23:44:07 46° 99° (E) 23:48:04 437.445
GONETS M04 06 Mar 23:45:30 23:53:17 34° 296° (WNW) 00:00:59
PCSat 06 Mar 23:46:15 23:48:41 13° 343° (NNW) 23:51:02 145.827
SPROUT 06 Mar 23:49:39 23:53:59 77° 75° (ENE) 23:58:20 437.525
SWISSCUBE 06 Mar 23:50:09 23:53:17 18° 59° (ENE) 23:56:33 437.505
RS-15 06 Mar 23:50:49 00:01:43 85° 125° (SE) 00:12:54 29.354- 29.394
AISAT 06 Mar 23:51:23 23:54:08 15° 272° (W) 23:56:43 437.250
BEESAT 2 06 Mar 23:53:10 23:56:40 25° 37° (NE) 00:00:11 435.950
QB50P1 06 Mar 23:54:21 23:58:37 88° 104° (ESE) 00:02:50 145.935-145.965
BEESAT 06 Mar 23:57:40 00:00:58 19° 60° (ENE) 00:04:24 436.000
VELOX 1 06 Mar 23:59:10 00:01:28 13° 273° (W) 00:03:34 145.980
QB50P2 06 Mar 23:59:54 00:04:11 81° 285° (WNW) 00:08:24 145.880/145.840
50 SAT 07 Mar 00:02:06 00:02:45 10° 274° (W) 00:03:10 437.505
DUCHIFAT 1 07 Mar 00:10:48 00:14:59 65° 287° (WNW) 00:19:08 145.980
AIST 2 07 Mar 00:17:07 00:20:25 21° 33° (NNE) 00:23:44 435.215
ITUPSAT 1 07 Mar 00:26:58 00:31:12 33° 65° (ENE) 00:35:30 437.325
UNISAT 6 07 Mar 00:32:38 00:36:11 25° 295° (WNW) 00:39:42 437.425
ESTCUBE 1 07 Mar 00:32:57 00:35:04 13° 274° (W) 00:36:59 437.505/2401.250
POPSAT HIP 1 07 Mar 00:34:58 00:38:53 37° 291° (WNW) 00:42:45 437.405
POLYITAN 1 07 Mar 00:36:57 00:40:49 35° 292° (WNW) 00:44:38 437.675
SO-50 07 Mar 00:39:08 00:43:06 29° 117° (ESE) 00:47:15 436.795
TIGRISAT 07 Mar 00:56:01 00:58:45 16° 299° (WNW) 01:01:23 435.000
NANOSAT C BR1 07 Mar 00:56:36 01:00:02 24° 295° (WNW) 01:03:23 145.865
BEESAT 3 07 Mar 01:00:00 01:04:10 90° 44° (NE) 01:08:17 437.485
Oscar 19 07 Mar 01:01:29 01:04:44 17° 88° (E) 01:08:09 437.125/150
DANDE 07 Mar 01:03:19 01:08:43 39° 286° (WNW) 01:12:49 436.750
CUSAT 1 07 Mar 01:05:48 01:10:16 28° 287° (WNW) 01:13:45 437.405
ANTELSAT 07 Mar 01:13:15 01:14:54 12° 302° (WNW) 01:16:22 437.575/2403.000
TISAT 1 07 Mar 01:14:07 01:17:07 18° 270° (W) 01:19:58 437.305
BUGSAT 1 07 Mar 01:16:15 01:19:20 20° 297° (WNW) 01:22:18 437.445
